Regional Weather Roundup
Issued by NWS

Home | Current Version | Previous Version | Graphics & Text | Print | Product List | Glossary On
Versions: 1 2 3 4 5 6 7 8 9 10 11 12 13 14 15 16 17 18 19 20 21 22 23 24 25 26 27 28
000
ASUS45 KTFX 190210
RWRMT
MONTANA REGIONAL WEATHER ROUNDUP
NATIONAL WEATHER SERVICE GREAT FALLS MT
700 PM MST SAT NOV 18 2017

NOTE: "FAIR" INDICATES FEW OR NO CLOUDS BELOW 12000 FEET WITH NO
SIGNIFICANT WEATHER AND/OR OBSTRUCTIONS TO VISIBILITY.

MTZ001>007-043-190300-
WEST OF THE DIVIDE

CITY           SKY/WX    TMP DP  RH WIND       PRES   REMARKS
KALISPELL      MOCLDY    34  26  72 CALM      30.17S
MISSOULA       FAIR      33  22  63 N7        30.18F WCI  27
BUTTE          FAIR      22  12  65 CALM      30.17F
MULLAN PASS    FAIR      22  18  85 VRB6      30.11R WCI  14
ANACONDA         N/A     30  12  47 S10       30.15F WCI  21
EUREKA           N/A     36  25  64 MISG      30.17S
HAMILTON         N/A     36  18  48 W3        30.18F
LIBBY            N/A     30  27  86 SW5       30.17F
PLAINS           N/A     31  22  69 CALM      30.18S
RONAN            N/A     32  25  76 CALM      30.19F
$$

MTZ008-052>055-190300-
SOUTHWEST MONTANA

CITY           SKY/WX    TMP DP  RH WIND       PRES   REMARKS
BOZEMAN        FAIR      26  18  71 CALM      30.18F
DILLON         FAIR      27  14  58 S10       30.19S WCI  17
W YELLOWSTONE  CLOUDY    23  16  74 SW6       30.31S WCI  16
ENNIS          CLOUDY    28  16  59 S24G30    30.27F WCI  14
TWIN BRIDGES     N/A     29  13  51 CALM      30.16F
$$

MTZ009-010-012-014-046-048-049-054-190300-
EAST SLOPES AND CENTRAL MONTANA

CITY           SKY/WX    TMP DP  RH WIND       PRES   REMARKS
CUT BANK       FAIR      35  22  58 W25G43    29.97F WCI  23
GREAT FALLS    FAIR      39  17  41 SW25G33   30.03F WCI  28
MALMSTROM AFB  MOCLDY    40  17  40 SW25G35   30.03F
HELENA         FAIR      34  21  59 NW3       30.15S
BOWMANS CRNR   MOCLDY    35  18  50 SW26G33   30.05S WCI  22
CHOTEAU          N/A     37  18  44 SW9G18    30.04R WCI  31
FAIRFIELD      MOCLDY    36  16  44 S17       30.03R WCI  26
POWER          MOCLDY    36  17  44 SW17G26   30.01F WCI  26
RAYNESFORD     MOCLDY    40  13  32 W17G25    30.02F
ULM            MOCLDY    41  14  34 SW32G41   30.04S
$$

MTZ011-013-016-021-045-047-050-051-190300-
NORTH CENTRAL MONTANA

CITY           SKY/WX    TMP DP  RH WIND       PRES   REMARKS
HAVRE          FAIR      33  25  72 SW14      29.99F WCI  23
LEWISTOWN      FAIR      33  20  58 SW13      30.03F WCI  24
N BAR RANCH    FAIR      30  18  59 W7        30.06F WCI  23
CHINOOK          N/A     34  23  64 CALM      30.00F
DENTON         MOCLDY    35  20  54 S8        30.00F WCI  29
GEYSER         MOCLDY    37  17  43 W24G31    29.99F WCI  26
GRASS RANGE    MOCLDY    33  20  57 E5        30.00F
STANFORD       MOCLDY    36  16  44 W8        30.02F WCI  29
WINIFRED       FAIR      34  21  59 SW6       30.02F WCI  29
$$

MTZ017>020-022>027-061-062-190300-
NORTHEAST MONTANA

CITY           SKY/WX    TMP DP  RH WIND       PRES   REMARKS
GLASGOW        FAIR      29  21  72 SW5       30.01F
GLENDIVE       FAIR      28  21  75 W12       30.07F WCI  18
JORDAN           N/A     27  21  78 W3        30.05F
SIDNEY         FAIR      32  22  66 W12       30.04F WCI  23
WOLF POINT     FAIR      26  18  71 SW3       30.03F
MALTA          CLEAR     27  23  86 W6        30.02F WCI  20
PLENTYWOOD       N/A     27  19  74 CALM      29.98S
POPLAR           N/A     27  19  74 SW5       30.03F
$$

MTZ028>42-056>058-190300-
SOUTHCENTRAL AND SOUTHEAST MONTANA

CITY           SKY/WX    TMP DP  RH WIND       PRES   REMARKS
BAKER          FAIR      30  22  72 W9        30.08F WCI  22
BILLINGS       FAIR      35  20  54 VRB5      30.10F
LIVINGSTON     FAIR      36  17  46 W25G47    30.11F WCI  24
MILES CITY     FAIR      34  24  67 S7        30.09F WCI  28
BIG TIMBER     CLEAR     37  16  41 W31G37    30.10F WCI  25
FORSYTH          N/A     37  19  48 CALM      30.10F
HARLOWTON      MOCLDY    34  17  50 N3        30.06F
LAUREL           N/A     36  19  51 W10       30.12S WCI  28
ROUNDUP          N/A     37  15  41 SW7       29.98F WCI  31
$$

REGIONAL REPORTS...DAKOTAS

CITY           SKY/WX    TMP DP  RH WIND       PRES   REMARKS
WILLISTON      FAIR      26  18  71 W12       30.01F WCI  16
MINOT          FAIR      17  10  74 CALM      30.00F
DICKINSON      FAIR      28  21  75 W13       30.02F WCI  17
BEACH          FAIR      28  21  74 W13       30.08F WCI  18
CROSBY         FAIR      18  14  86 SW9       29.99F WCI   6
TIOGA          FAIR      21  18  86 SW10      30.00F WCI  10
WATFORD CITY   FAIR      23  18  80 SW10      30.02F WCI  12
BISMARCK       FAIR      25  18  74 CALM      30.08F
GRAND FORKS    FAIR      16   8  71 NW12      30.04F WCI   3
FARGO          FAIR      15   8  73 W7        30.08S WCI   5
BUFFALO SD       N/A     32  21  64 W9        30.03F WCI  24
RAPID CITY     FAIR      24  17  74 W5        30.16R
$$

REGIONAL REPORTS...WYOMING/IDAHO/WASHINGTON

CITY           SKY/WX    TMP DP  RH WIND       PRES   REMARKS
GILLETTE       FAIR      22  16  78 SW5       30.13F
SHERIDAN       FAIR      26  19  74 SE3       30.13F
BUFFALO WY     FAIR      27  12  53 W9        30.14F WCI  18
CODY           FAIR      36  14  40 SW15      30.16F WCI  27
YELLOWSTONE LA   N/A     16  13  88 CALM      30.30F
IDAHO FALLS    MOCLDY    31  23  72 SE6       30.36S WCI  25
SALMON         FAIR      28  19  69 CALM      30.28S
BOISE          FAIR      38  22  52 SE9       30.28F WCI  31
SPOKANE        MOCLDY    38  31  76 SE3       30.17F
$$

REGIONAL REPORTS...ALBERTA

CITY           SKY/WX    TMP DP  RH WIND       PRES   REMARKS
EDMONTON       CLOUDY    32  19  59 W5        29.79S
CALGARY        MOCLDY    39  16  38 W17G26    29.85R WCI  30
LETHBRIDGE     MOCLDY    37  23  56 W40G51    29.86F WCI  23
MEDICINE HAT   PTCLDY    28  23  80 SW13      29.91F WCI  18
$$

REGIONAL REPORTS...SASKATCHEWAN

CITY           SKY/WX    TMP DP  RH WIND       PRES   REMARKS
SWIFT CURRENT  CLEAR     27  19  74 SW15      29.88F WCI  15
REGINA         PTCLDY     9   5  85 E6        29.94F WCI  -1
SASKATOON      CLOUDY    12   7  79 S8        29.89F WCI   1
$$




USA.gov is the U.S. government's official web portal to all federal, state and local government web resources and services.